Estación Meteorológica Peña el Pijo (Robertgarden) [ 09/29/20 12:23:37 CEST ]

Fecha Hora Presion(HPa) Temp (°C) Humedad % Rocio (°C) Viento ( m/s) Direccion Lluvia 1Hora(mm) Lluvia 24H(mm) LLuvia Total(mm)
2020-Jan-23 01:09:05 1005.400 - - - - N     39.88
2020-Jan-23 03:38:43 1005.500 - - - - N     39.88
2020-Jan-23 04:09:16 1005.500 - - - - N     39.88
2020-Jan-23 05:08:56 1004.800 - - - - N     39.88
2020-Jan-23 06:09:25 1004.900 - - - - N     39.88
2020-Jan-23 07:08:59 1004.900 - - - - N     39.88
2020-Jan-23 08:08:54 1005.500 - - - - N     39.88
2020-Jan-23 09:08:59 1006.300 - - - - N     39.88
2020-Jan-23 10:09:33 1007.000 - - - - N     39.88
2020-Jan-23 11:09:12 1007.200 - - - - N     39.88
2020-Jan-23 12:09:21 1007.000 - - - - N     39.88
2020-Jan-23 13:09:26 1006.800 - - - - N     39.88
2020-Jan-23 14:09:32 1006.300 - - - - N     39.88
2020-Jan-23 15:09:16 1005.700 - - - - N     39.88
2020-Jan-23 16:09:11 1005.600 - - - - N     39.88
2020-Jan-23 17:09:05 1006.100 - - - - N     39.88
2020-Jan-23 18:09:22 1006.300 - - - - N     39.88
2020-Jan-23 19:09:04 1006.800 - - - - N     39.88
2020-Jan-23 20:09:16 1007.500 - - - - N     39.88
2020-Jan-23 21:09:22 1007.800 - - - - N     39.88
2020-Jan-23 22:09:15 1008.000 - - - - N     39.88
2020-Jan-23 23:09:12 1008.200 - - - - N     39.88

Temperatura Máxima:    Temperatura Mínima:
Presión Máxima:1008.200 Hpa    Presión Mínima:1004.800 Hpa


Volver